When you browse on this site, cookies collect data to enhance your experience and personalize the content and advertising you see.
Visit our Privacy Policy to learn more. By continuing to use the site, you agree to this use of cookies and data.
  • En España
  • Lista de países
  • Para 7 días
  • Temperatura del agua
  • El tiempo en el mapa
  • Informadores
  • user-avatar
    Iniciar sesión

    Tiempo cada hora Matlock

    Hoy, 21 Septiembre, Sábado

    Tiempo Temperatura Precipitaciones Viento Presión Humedad
    00:00 +10°C° 0 mm 3 mps 747 mmHg 85%
    01:00 +10°C° 0 mm 3 mps 747 mmHg 86%
    02:00 +10°C° 0 mm 3 mps 746 mmHg 86%
    03:00 +10°C° 0 mm 3 mps 746 mmHg 87%
    04:00 +10°C° 0 mm 4 mps 745 mmHg 87%
    05:00 +10°C° 0 mm 4 mps 745 mmHg 87%
    06:00 +10°C° 0 mm 4 mps 744 mmHg 87%
    07:00 +11°C° 0 mm 4 mps 744 mmHg 81%
    08:00 +13°C° 0 mm 5 mps 744 mmHg 76%
    09:00 +14°C° 0 mm 5 mps 744 mmHg 70%
    10:00 +16°C° 0 mm 5 mps 743 mmHg 65%
    11:00 +17°C° 0 mm 5 mps 743 mmHg 61%
    12:00 +19°C° 0 mm 5 mps 742 mmHg 57%
    13:00 +20°C° 0 mm 5 mps 742 mmHg 56%
    14:00 +20°C° 0 mm 5 mps 741 mmHg 56%
    15:00 +21°C° 0 mm 5 mps 741 mmHg 55%
    16:00 +20°C° 0 mm 5 mps 740 mmHg 60%
    17:00 +18°C° 0 mm 4 mps 740 mmHg 65%
    18:00 +17°C° 0 mm 4 mps 740 mmHg 69%
    19:00 +15°C° 0 mm 4 mps 739 mmHg 71%
    20:00 +16°C° 0 mm 3 mps 739 mmHg 73%
    21:00 +14°C° 0 mm 3 mps 739 mmHg 75%
    22:00 +14°C° 0 mm 3 mps 739 mmHg 77%
    23:00 +15°C° 0 mm 2 mps 738 mmHg 78%

    Mañana, 22 Septiembre, Domingo

    Tiempo Temperatura Precipitaciones Viento Presión Humedad
    00:00 +15°C° 0 mm 2 mps 738 mmHg 79%
    01:00 +15°C° 0 mm 2 mps 737 mmHg 81%
    02:00 +15°C° 0 mm 2 mps 737 mmHg 83%
    03:00 +15°C° 0 mm 2 mps 736 mmHg 85%
    04:00 +15°C° 0.2 mm 2 mps 736 mmHg 87%
    05:00 +15°C° 0.2 mm 2 mps 736 mmHg 89%
    06:00 +15°C° 0.2 mm 2 mps 735 mmHg 91%
    07:00 +16°C° 0.1 mm 2 mps 735 mmHg 88%
    08:00 +17°C° 0.1 mm 3 mps 735 mmHg 86%
    09:00 +18°C° 0.1 mm 3 mps 735 mmHg 83%
    10:00 +19°C° 0.4 mm 4 mps 735 mmHg 82%
    11:00 +20°C° 0.4 mm 4 mps 735 mmHg 80%
    12:00 +20°C° 0.4 mm 5 mps 735 mmHg 78%
    13:00 +19°C° 0.5 mm 5 mps 735 mmHg 80%
    14:00 +17°C° 0.5 mm 4 mps 735 mmHg 82%
    15:00 +15°C° 0.5 mm 4 mps 735 mmHg 84%
    16:00 +16°C° 0 mm 3 mps 735 mmHg 85%
    17:00 +14°C° 0 mm 3 mps 735 mmHg 87%
    18:00 +15°C° 0 mm 2 mps 735 mmHg 88%
    19:00 +15°C° 0 mm 2 mps 735 mmHg 89%
    20:00 +14°C° 0 mm 2 mps 735 mmHg 89%
    21:00 +14°C° 0 mm 2 mps 736 mmHg 90%
    22:00 +13°C° 0 mm 2 mps 736 mmHg 92%
    23:00 +13°C° 0 mm 2 mps 736 mmHg 93%

    Pasado mañana, 23 Septiembre, Lunes

    Tiempo Temperatura Precipitaciones Viento Presión Humedad
    00:00 +12°C° 0 mm 2 mps 736 mmHg 95%
    01:00 +12°C° 0 mm 2 mps 736 mmHg 95%
    02:00 +11°C° 0 mm 3 mps 737 mmHg 96%
    03:00 +11°C° 0 mm 3 mps 737 mmHg 96%
    04:00 +11°C° 0 mm 4 mps 737 mmHg 94%
    05:00 +12°C° 0 mm 4 mps 737 mmHg 93%
    06:00 +12°C° 0 mm 5 mps 737 mmHg 91%
    07:00 +12°C° 0 mm 5 mps 738 mmHg 87%
    08:00 +13°C° 0 mm 4 mps 738 mmHg 83%
    09:00 +13°C° 0 mm 4 mps 738 mmHg 79%
    10:00 +14°C° 0 mm 4 mps 738 mmHg 74%
    11:00 +15°C° 0 mm 5 mps 738 mmHg 70%
    12:00 +16°C° 0 mm 5 mps 738 mmHg 65%
    13:00 +16°C° 0 mm 5 mps 738 mmHg 66%
    14:00 +16°C° 0 mm 5 mps 738 mmHg 66%
    15:00 +17°C° 0 mm 5 mps 737 mmHg 66%
    16:00 +15°C° 0.5 mm 6 mps 737 mmHg 74%
    17:00 +14°C° 0.5 mm 6 mps 736 mmHg 83%
    18:00 +11°C° 0.5 mm 6 mps 736 mmHg 91%
    19:00 +13°C° 0.6 mm 6 mps 735 mmHg 91%
    20:00 +13°C° 0.6 mm 6 mps 735 mmHg 92%
    21:00 +14°C° 0.6 mm 6 mps 735 mmHg 92%
    22:00 +14°C° 0.3 mm 5 mps 735 mmHg 93%
    23:00 +14°C° 0.3 mm 4 mps 734 mmHg 94%

    24 Septiembre, Martes

    Tiempo Temperatura Precipitaciones Viento Presión Humedad
    00:00 +15°C° 0.3 mm 4 mps 734 mmHg 95%
    01:00 +15°C° 0.1 mm 4 mps 734 mmHg 95%
    02:00 +14°C° 0.1 mm 4 mps 734 mmHg 95%
    03:00 +14°C° 0.1 mm 4 mps 733 mmHg 95%
    04:00 +14°C° 0 mm 4 mps 733 mmHg 95%
    05:00 +14°C° 0 mm 4 mps 733 mmHg 95%
    06:00 +14°C° 0 mm 3 mps 732 mmHg 95%
    07:00 +14°C° 0.4 mm 4 mps 732 mmHg 93%
    08:00 +14°C° 0.4 mm 4 mps 732 mmHg 92%
    09:00 +15°C° 0.4 mm 4 mps 732 mmHg 90%
    10:00 +15°C° 0.7 mm 4 mps 731 mmHg 85%
    11:00 +16°C° 0.7 mm 5 mps 731 mmHg 80%
    12:00 +17°C° 0.7 mm 5 mps 731 mmHg 76%
    13:00 +17°C° 0.2 mm 6 mps 731 mmHg 74%
    14:00 +17°C° 0.2 mm 6 mps 731 mmHg 73%
    15:00 +17°C° 0.2 mm 7 mps 730 mmHg 71%
    16:00 +15°C° 0.8 mm 6 mps 730 mmHg 77%
    17:00 +14°C° 0.8 mm 6 mps 729 mmHg 82%
    18:00 +13°C° 0.8 mm 6 mps 729 mmHg 88%
    19:00 +13°C° 0.4 mm 6 mps 729 mmHg 88%
    20:00 +13°C° 0.4 mm 6 mps 728 mmHg 88%
    21:00 +13°C° 0.4 mm 6 mps 728 mmHg 87%
    22:00 +12°C° 0.2 mm 7 mps 728 mmHg 88%
    23:00 +12°C° 0.2 mm 7 mps 727 mmHg 89%

    25 Septiembre, Miércoles

    Tiempo Temperatura Precipitaciones Viento Presión Humedad
    00:00 +11°C° 0.2 mm 8 mps 726 mmHg 89%
    01:00 +12°C° 0.5 mm 8 mps 726 mmHg 88%
    02:00 +12°C° 0.5 mm 8 mps 726 mmHg 88%
    03:00 +12°C° 0.5 mm 9 mps 726 mmHg 87%
    04:00 +11°C° 0.2 mm 8 mps 727 mmHg 87%
    05:00 +11°C° 0.2 mm 8 mps 727 mmHg 88%
    06:00 +10°C° 0.2 mm 7 mps 727 mmHg 88%
    07:00 +11°C° 0 mm 7 mps 728 mmHg 85%
    08:00 +12°C° 0 mm 7 mps 729 mmHg 82%
    09:00 +14°C° 0 mm 7 mps 729 mmHg 80%
    10:00 +14°C° 0.2 mm 7 mps 730 mmHg 78%
    11:00 +14°C° 0.2 mm 6 mps 730 mmHg 77%
    12:00 +15°C° 0.2 mm 6 mps 731 mmHg 75%
    13:00 +15°C° 0.2 mm 6 mps 731 mmHg 74%
    14:00 +15°C° 0.2 mm 6 mps 731 mmHg 73%
    15:00 +16°C° 0.2 mm 6 mps 731 mmHg 72%
    16:00 +15°C° 0.1 mm 5 mps 731 mmHg 76%
    17:00 +14°C° 0.1 mm 5 mps 731 mmHg 81%
    18:00 +13°C° 0.1 mm 4 mps 731 mmHg 86%
    19:00 +12°C° 0 mm 3 mps 731 mmHg 87%
    20:00 +11°C° 0 mm 3 mps 731 mmHg 89%
    21:00 +12°C° 0 mm 2 mps 731 mmHg 90%
    22:00 +12°C° 0 mm 2 mps 731 mmHg 92%
    23:00 +12°C° 0 mm 2 mps 730 mmHg 93%

    26 Septiembre, Jueves

    Tiempo Temperatura Precipitaciones Viento Presión Humedad
    00:00 +12°C° 0 mm 2 mps 730 mmHg 94%
    01:00 +11°C° 1.3 mm 3 mps 729 mmHg 95%
    02:00 +12°C° 1.3 mm 3 mps 729 mmHg 96%
    03:00 +12°C° 1.3 mm 3 mps 728 mmHg 97%
    04:00 +13°C° 0.9 mm 4 mps 728 mmHg 95%
    05:00 +13°C° 0.9 mm 5 mps 728 mmHg 94%
    06:00 +14°C° 0.9 mm 5 mps 727 mmHg 92%
    07:00 +14°C° 0 mm 6 mps 727 mmHg 89%
    08:00 +15°C° 0 mm 7 mps 727 mmHg 85%
    09:00 +15°C° 0 mm 8 mps 728 mmHg 81%
    10:00 +15°C° 0.4 mm 8 mps 728 mmHg 79%
    11:00 +15°C° 0.4 mm 8 mps 728 mmHg 77%
    12:00 +15°C° 0.4 mm 8 mps 728 mmHg 74%
    13:00 +15°C° 0.2 mm 8 mps 728 mmHg 73%
    14:00 +15°C° 0.2 mm 8 mps 728 mmHg 71%
    15:00 +13°C° 0.2 mm 8 mps 728 mmHg 70%
    16:00 +14°C° 0.2 mm 7 mps 728 mmHg 74%
    17:00 +12°C° 0.2 mm 7 mps 729 mmHg 77%
    18:00 +11°C° 0.2 mm 6 mps 729 mmHg 81%
    19:00 +11°C° 0.3 mm 6 mps 729 mmHg 83%
    20:00 +10°C° 0.3 mm 7 mps 729 mmHg 84%
    21:00 +10°C° 0.3 mm 7 mps 729 mmHg 86%
    22:00 +10°C° 0 mm 7 mps 729 mmHg 87%
    23:00 +9°C° 0 mm 6 mps 729 mmHg 87%
    Mostrar más